Regional Weather Roundup
Issued by NWS Grand Forks, ND

Home | Current Version | Previous Version | Graphics & Text | Print | Product List | Glossary On
Versions: 1 2 3 4 5 6 7 8 9 10 11 12 13 14 15 16 17 18 19 20 21 22 23 24 25 26 27 28 29 30 31 32 33 34 35 36 37 38 39 40 41 42 43 44 45 46 47 48 49 50
000
ASUS43 KFGF 031531
RWRFGF
PRAIRIE TO PINES  WEATHER ROUNDUP
NATIONAL WEATHER SERVICE EASTERN NORTH DAKOTA/GRAND FORKS ND
1000 AM CDT THU SEP 03 2015

 **SATELLITE DATA USED TO AUGMENT SKY COVER AT AUTOMATED STATIONS**
 *****  WEATHER ACROSS EASTERN NORTH DAKOTA  *****

CITY           SKY/WX    TMP DP  RH WIND       PRES   REMARKS
GRAND FORKS    CLOUDY    74  69  85 SE18G24   29.77F
GRAND FRKS AFB CLOUDY    72  70  94 S20G26    29.77S
GRAND FRKS NWS   N/A     73 N/A N/A SE14        N/A
DEVILS LAKE    CLOUDY    72  64  78 SE21      29.72S
FARGO          MOSUNNY   79  70  74 SE21G28   29.79S
WAHPETON ARPT  CLOUDY    73  68  83 SE20      29.82S
$$

 ***** WEATHER ACROSS CENTRAL AND WESTERN NORTH DAKOTA  *****

CITY           SKY/WX    TMP DP  RH WIND       PRES   REMARKS
BISMARCK       MOSUNNY   76  67  73 SE13      29.70R
MINOT          CLOUDY    73  70  90 E6        29.67F FOG
JAMESTOWN      PTSUNNY   77  70  79 SE15      29.74F
MINOT AFB      CLOUDY    73  73 100 SE8       29.65F
GARRISON         N/A     75  68  78 S9        29.68R
WILLISTON      SUNNY     70  54  56 N14       29.69S
DICKINSON      MOSUNNY   80  48  32 W8        29.68S
HETTINGER      MOSUNNY   77  48  35 W3        29.73S
$$

 *****  OTHER AIRPORT OBSERVATIONS IN OUR AREA  *****

CITY           SKY/WX    TMP DP  RH WIND       PRES   REMARKS
WALHALLA       FAIR      72  72 100 MISG      29.75S FOG
GRAFTON AIRPOR CLOUDY    73  73 100 S15G23    29.77F
VALLEY CITY AR CLOUDY    73  73 100 SE17      29.77F FOG
CANDO          CLOUDY    73  70  88 SE18      29.73S
CAVALIER APRT  FOG       72  72 100 S13G18    29.75F VSB 1
GWINNER          N/A     77  77 100 SE14G20   29.79S
SHEYENNE NWR     N/A     74  70  87 S14       29.95S
ROLLA          CLOUDY    73  72  94 SE15      29.75F
 ***** THE ABOVE OBSERVATIONS ARE NON NWS ARE NOT QUALITY
       CONTROLLED AND MAY MIS-REPORT RAIN FOR SNOW...
$$

  *****  WEATHER ACROSS NORTHERN MINNESOTA  *****

CITY           SKY/WX    TMP DP  RH WIND       PRES   REMARKS
FLAG ISLAND    CLOUDY    66  64  94 S22       29.87F
WARROAD        CLOUDY    68  64  88 SE12      29.87F
ROSEAU         CLOUDY    72  66  83 SE13G20   29.85S
HALLOCK        PTSUNNY   79  72  78 SE20      29.77F
THF RVR FALLS  MOSUNNY   75  70  83 SE15G23   29.83S
BAUDETTE       CLOUDY    67  63  87 SE16G23   29.90F
WASKISH        MOSUNNY   70  68  94 E10       29.91S
CROOKSTON      SUNNY     79  70  73 SE22      29.80F
STEPHEN NDAWN    N/A     79  70  73 SE15        N/A
GREENBUSH NDAW   N/A     73  70  88 SE14        N/A
$$
  *****  WEATHER ACROSS CENTRAL AND WEST MINNESOTA  *****

CITY           SKY/WX    TMP DP  RH WIND       PRES   REMARKS
FOSSTON        SUNNY     77  66  69 SE12G20   29.85F
BEMIDJI        PTSUNNY   72  65  80 SE14G20   29.91S
PARK RAPIDS    SUNNY     74  65  73 SE13      29.91S
ELBOW LAKE     FAIR      75  70  86 SE14G20   29.85S
WADENA         CLOUDY    72  68  88 SE14      29.90S
DETROIT LAKES  PTSUNNY   72  68  88 SE16      29.88S
MOORHEAD       MOSUNNY   79  72  78 SE17      29.81S
FERGUS FALLS   SUNNY     75  72  88 SE13      29.83S
MORRIS MN      CLOUDY    72  72 100 SE15      29.85S FOG
STAPLES        CLOUDY    73  66  78 SE8       29.91S
$$
  *****  WEATHER ELSEWHERE ACROSS MINNESOTA  *****

CITY           SKY/WX    TMP DP  RH WIND       PRES   REMARKS
DULUTH         DRZL/FOG  62  61  96 E12       30.00S VSB 1/4
INTRNTL FALLS  MOSUNNY   69  63  81 SE9       29.95F
ELY            SUNNY     70  61  73 SE8       29.99F
CLOQUET        CLOUDY    63  61  94 E9        29.99S FOG
WHEATON        PTSUNNY   70  68  94 SE16      29.85R
BRAINERD       CLOUDY    69  65  86 VRB7      29.94S
HIBBING        CLOUDY    64  62  93 SE6       29.99S
ALEXANDRIA     CLOUDY    70  69  97 SE10      29.91R FOG
SAINT CLOUD    CLOUDY    71  68  90 E8        29.91S
MINNEAPOLIS    CLOUDY    73  70  90 E9        29.92R
$$

  *****  WEATHER ACROSS SOUTH DAKOTA  *****

CITY           SKY/WX    TMP DP  RH WIND       PRES   REMARKS
SIOUX FALLS    SUNNY     75  69  81 S8        29.85S
BROOKINGS      SUNNY     75  70  83 S13       29.86F
WATERTOWN      SUNNY     76  69  79 S14       29.83S
HURON          SUNNY     75  69  81 S9        29.79R
SISSETON         N/A     72  70  93 S12       29.82R
ABERDEEN       SUNNY     78  70  76 S15       29.76S
MITCHELL       SUNNY     76  70  82 SE10      29.80F
PIERRE           N/A     77  64  64 MISG      29.73F
MOBRIDGE       SUNNY     79  64  60 SE12      29.70S
RAPID CITY     MOSUNNY   77  55  46 VRB3      29.80S
$$

  *****  SOME WEATHER IN NEARBY STATES *****

CITY           SKY/WX    TMP DP  RH WIND       PRES   REMARKS
GLASGOW MT     SUNNY     62  40  44 NW15      29.86R
GREAT FALLS MT CLOUDY    56  37  49 E15       29.93S
CHEYENNE WY    PTSUNNY   70  46  42 CALM      30.08F
SCOTTSBLUFF NE MOSUNNY   73  54  51 W5        29.92F
OMAHA NE       MOSUNNY   80  68  66 S14       29.87S
DES MOINES IA  PTSUNNY   78  69  73 S10       29.92S
DAVENPORT IA   SUNNY     81  71  71 SW10      29.96S
CHICAGO IL     MOSUNNY   82  69  64 W12       29.94F
EAU CLAIRE WI  CLOUDY    68  66  93 NE10      29.95S
LA CROSSE WI   SUNNY     79  70  74 CALM      29.92S
$$

  *****  SOME NATIONAL WEATHER *****

CITY           SKY/WX    TMP DP  RH WIND       PRES   REMARKS
LA GUARDIA NY  MOSUNNY   84  64  50 NE8       29.88S
RALEIGH NC     PTSUNNY   79  70  74 CALM      29.99R
ATLANTA GA     CLOUDY    81  70  69 N6        30.03S
NEW ORLEANS LA CLOUDY    84  75  74 NE13      30.00R HX  92
OKLAHOMA CITY  MOSUNNY   80  67  64 S12       30.00R
ALBUQUERQUE NM PTSUNNY   67  49  52 S5        30.19S
SALT LAKE CITY PTSUNNY   76  41  28 S14       29.92S
LOS ANGELES CA CLOUDY    68  59  73 SE7       29.92R
BOISE ID       MOSUNNY   56  44  64 NW15      29.92R
SEATTLE WA     PTSUNNY   53  49  86 S6        30.02R
$$

*** WEATHER ACROSS MANITOBA...SASKATCHEWAN AND ONTARIO ***
                ***ONTARIO***

CITY           SKY/WX    TMP DP  RH WIND       PRES   REMARKS
GERALDTON      MOSUNNY   75  59  57 SE7       30.04F
THUNDER BAY    SUNNY     68  57  68 CALM      30.02S
SIOUX LOOKOUT  PTSUNNY   70  61  73 S8        29.98S
TORONTO        CLOUDY    79  72  78 CALM      29.96S
BIG TROUT LK   MOSUNNY   66  63  88 SW8       29.81R
PICKLE LAKE    PTSUNNY   73  61  64 SW6       29.98F
DRYDEN         SUNNY     72  61  68 S14       29.95S
KENORA         MOSUNNY   72  63  73 S13       29.91S
$$
                *** MANITOBA***

CITY           SKY/WX    TMP DP  RH WIND       PRES   REMARKS
BRANDON        CLOUDY    75  72  88 SE9       29.71S FOG
DAUPHIN        SUNNY     75  68  78 VRB3      29.70F
ISLAND LAKE    PTSUNNY   72  64  78 S7        29.77R
PILOT MOUND      N/A     70  68  94 SE12        N/A
THE PAS        MOSUNNY   70  59  68 S5        29.69R
THOMPSON       CLOUDY    61  59  94 E2        29.72R
WINNIPEG       CLOUDY    70  68  94 S20       29.78S
LYNN LAKE      PTSUNNY   64  57  77 E13       29.62F
CHURCHILL      PTSUNNY   52  50  93 E6        29.77F
GILLAM         PTSUNNY   63  57  82 NE3       29.76R
$$
                ***SASKATCHEWAN***

CITY           SKY/WX    TMP DP  RH WIND       PRES   REMARKS
ESTEVAN        PTSUNNY   72  63  73 N13       29.71R
KINDERSLEY     PTSUNNY   50  45  81 NW6       29.92
LLOYDMINSTER   CLOUDY    46  43  87 W15G21    29.88R
PRINCE ALBERT  CLOUDY    57  48  72 NW12      29.79R
REGINA         PTSUNNY   57  50  77 N14G20    29.78S
YORKTON        MOSUNNY   68  57  68 NW15      29.73R
N. BATTLEFORD  CLOUDY    48  46  93 NW13      29.89R
LA RONGE       MOSUNNY   57  50  77 W12G17    29.71R
SASKATOON      PTSUNNY   54  46  76 W9        29.87R
SWIFT CURRENT  SUNNY     57  43  58 W8        29.91R
$$
NOTE: THESE ARE AUTOMATED STATIONS WITH LIMITED QUALITY CONTROL
      "FAIR" INDICATES FEW OR NO CLOUDS BELOW 12,000 FEET WITH NO
      SIGNIFICANT WEATHER AND/OR OBSTRUCTIONS TO VISIBILITY.
      SKY/WX - SKY CONDITION AND SIGNIFICANT WEATHER.
      TMP - AIR TEMPERATURE.    DP   - DEWPOINT TEMPERATURE.
      RH  - RELATIVE HUMIDITY.  PRES - PRESSURE.
      HX  - HEAT INDEX.         WCI  - WIND CHILL INDEX.
$



USA.gov is the U.S. government's official web portal to all federal, state and local government web resources and services.